Location: Home
(42.5358°N, 72.7383°W)
Time: 18:15:45
(UTC-05:00)

Tiros 1 - Pass Details

Date: 07 December 2021
Orbit: 629 x 664 km, 48.4° (Epoch: 26 January)

Event Time Altitude Azimuth Distance (km) Brightness Sun altitude
Rises 18:13:26 0° 259° (W) 2,914 12.1 -20.6°
Reaches altitude 10° 18:15:47 10° 264° (W) 2,011 10.9 -21.0°
Maximum altitude 18:20:20 56° 342° (NNW) 762 7.4 -21.8°
Enters shadow 18:21:11 48° 23° (NNE) 839 7.4 -22.0°
